Wetbulb
77.71 78.20 78.54 78.43 78.60 78.38 77.63 77.42 76.95 77.37 77.32 76.44 76.72 76.74 76.82 77.18 77.12 76.67 76.65 74.45 75.14 74.68 74.88 75.48 75.25 73.64 74.00 74.15 74.45 72.48 70.35 68.34 67.56 68.59 70.93 71.19 71.10 71.40 72.91 73.49 74.92 74.95 75.25
78.26 77.39 77.97 77.93 77.92 78.64 79.67 77.77 77.99 77.54 77.14 76.68 76.99 76.76 77.21 76.64 76.43 76.19 75.87 75.56 73.86 74.19 74.13 73.83 73.78 73.36 73.49 73.62 73.22 71.37 68.07 68.20 67.90 67.86 68.40 69.10 66.07 69.26 70.86 71.31 73.25 74.53 74.81
79.54 79.04 77.63 77.40 77.43 78.34 78.49 77.67 77.76 77.36 76.39 77.28 76.58 76.77 76.43 76.47 75.78 75.73 75.33 75.11 75.57 73.92 73.56 73.41 73.57 72.76 72.63 72.90 72.28 71.55 69.74 66.87 68.04 69.00 69.21 69.45 68.29 68.29 69.95 69.97 71.33 73.36 74.33
79.25 79.05 78.00 77.26 77.48 78.52 77.55 76.80 76.91 76.46 76.08 76.45 76.49 76.39 75.99 75.65 75.89 75.24 75.12 74.72 74.31 74.23 72.60 72.63 72.82 72.31 71.71 71.61 71.41 69.52 68.40 68.66 69.69 69.35 68.88 68.73 69.24 69.45 69.38 70.34 70.42 70.94 73.53
79.49 79.37 77.70 78.08 79.38 78.16 78.03 77.17 76.36 76.55 76.13 76.11 75.58 75.83 75.84 75.60 75.04 74.30 74.30 74.30 73.99 73.62 72.29 72.27 71.56 70.99 70.99 70.82 70.64 70.38 69.59 68.67 68.66 68.93 69.10 69.02 68.54 68.90 69.15 69.29 69.92 68.78 72.45
80.00 79.57 78.23 79.00 79.47 77.63 76.90 77.24 78.21 77.56 76.86 76.17 74.61 75.45 75.47 75.93 74.82 73.93 73.63 72.82 72.69 72.14 71.41 71.39 71.61 69.48 67.90 67.55 67.24 67.01 67.30 68.44 69.92 68.74 69.05 69.03 68.98 67.72 68.02 68.61 69.04 68.93 71.17
79.54 80.42 78.00 78.26 78.53 77.59 78.48 78.14 77.34 76.80 75.58 76.54 74.62 73.15 73.46 75.08 73.54 72.34 72.39 71.77 71.26 70.47 70.08 69.42 68.55 67.73 67.21 67.13 66.23 66.33 66.09 66.87 68.66 69.59 68.79 68.59 68.07 68.13 69.16 68.75 68.52 69.23 70.17
78.57 78.90 79.42 78.46 78.91 78.00 78.32 78.25 77.93 75.65 75.75 76.36 73.92 71.73 68.52 71.47 73.09 71.93 71.65 71.54 70.27 70.85 69.46 67.93 67.27 67.55 67.28 66.66 66.91 65.43 65.20 65.43 66.48 68.76 68.69 67.85 67.34 67.91 67.93 68.86 67.51 69.91 72.11
78.87 79.64 79.79 79.61 79.74 78.99 76.55 78.51 77.61 76.93 74.53 75.75 76.52 72.18 64.84 62.66 66.95 72.33 71.43 71.70 71.15 70.77 69.76 67.32 66.85 67.09 67.21 66.64 66.58 65.24 64.45 64.02 64.58 66.48 68.47 68.69 68.18 67.52 68.22 68.73 68.95 70.25 69.90
79.10 78.91 79.79 79.85 80.11 78.55 78.96 77.90 77.79 77.74 77.87 73.99 74.01 73.69 73.56 70.60 64.04 64.05 69.97 69.95 70.31 69.86 68.95 68.27 67.12 67.00 67.03 65.97 66.33 64.50 63.68 63.07 63.63 64.23 66.83 68.56 68.35 67.76 67.93 68.45 69.70 70.55 70.11
79.47 78.75 79.41 79.67 79.48 78.22 79.79 79.17 78.11 78.15 77.24 75.05 71.25 69.21 70.97 69.32 70.06 64.54 61.29 65.19 67.98 68.92 68.94 67.91 66.40 66.05 66.52 66.13 65.72 64.14 63.22 62.72 62.52 63.38 64.44 66.78 68.66 68.11 68.11 68.25 70.20 70.27 69.84
78.36 79.67 79.50 79.49 80.25 79.99 79.53 78.68 78.85 78.81 76.64 74.84 72.04 69.81 67.17 65.15 63.86 63.20 61.38 63.56 63.27 67.22 68.09 68.02 66.50 65.63 65.75 65.32 65.00 63.65 62.83 62.29 61.98 61.98 62.86 63.99 67.10 68.48 68.05 68.94 68.97 70.29 70.17
77.44 79.08 79.80 79.41 78.95 80.48 79.83 79.75 78.93 78.06 76.36 74.86 73.37 68.81 66.85 64.26 63.23 62.39 61.91 61.11 62.23 65.10 66.67 66.83 66.29 65.87 64.39 64.69 65.13 63.72 62.84 61.74 61.13 61.01 61.85 63.57 65.67 67.12 67.68 68.30 69.01 69.82 70.46
77.14 79.61 79.08 79.45 79.99 79.87 79.45 79.86 79.10 76.91 76.42 72.49 70.58 69.44 64.33 62.32 62.53 61.72 60.52 59.90 58.86 61.24 64.44 64.63 66.09 66.08 65.31 64.71 64.21 62.29 63.19 60.98 60.43 59.89 60.62 61.64 62.99 64.99 65.86 66.74 68.02 68.67 69.18
77.01 78.62 79.47 78.95 79.76 79.51 79.22 79.92 77.50 73.22 73.13 71.68 69.14 67.78 64.40 63.25 63.40 62.86 62.49 61.20 59.08 56.91 58.29 63.94 62.91 65.42 65.02 65.04 63.73 63.96 63.02 60.49 60.23 59.51 59.66 60.58 61.32 62.08 63.55 65.00 66.20 66.76 67.22
79.32 78.43 78.51 78.77 79.25 79.57 79.81 80.00 76.97 71.59 71.10 70.67 68.21 67.44 65.63 63.67 63.68 62.56 62.38 62.53 62.44 60.08 58.40 62.68 63.22 63.64 64.93 63.98 62.65 64.33 62.55 61.04 59.85 59.32 59.10 59.40 60.00 60.48 61.47 62.56 64.27 65.29 65.35
78.98 78.84 79.05 78.97 78.84 79.12 79.85 79.20 76.45 71.50 68.30 69.44 68.69 65.73 64.37 65.26 61.77 61.23 62.71 63.23 62.96 62.22 60.09 62.62 64.48 64.05 64.05 64.31 64.98 64.56 62.64 62.93 60.01 59.23 58.67 58.30 58.17 58.81 59.46 60.26 60.91 62.53 64.33
78.36 78.69 78.85 78.65 78.29 78.78 80.00 78.49 75.79 71.80 67.90 69.25 66.53 64.40 62.80 61.95 61.97 64.76 64.42 64.03 62.57 63.02 61.72 61.44 62.07 62.98 61.81 64.29 64.61 64.16 62.36 61.32 59.99 59.19 58.48 58.06 57.61 57.28 57.71 58.52 58.50 59.07 59.58
77.37 77.56 78.13 78.02 77.59 78.28 79.44 78.85 76.49 71.43 67.67 68.56 65.70 63.88 62.37 61.43 64.37 64.33 63.97 63.20 62.49 61.94 62.50 60.86 60.36 62.06 62.32 62.12 61.98 62.68 61.76 60.46 59.83 59.39 58.28 58.07 57.73 57.57 56.89 56.97 56.93 57.13 56.60
76.41 76.83 77.75 78.05 77.74 79.16 79.71 78.54 75.66 71.02 67.31 67.70 65.69 63.29 61.80 63.44 64.60 64.15 63.44 63.55 63.14 62.37 62.58 60.74 60.20 59.29 59.78 60.72 59.83 59.44 57.07 56.45 56.43 58.25 58.25 57.20 57.49 57.31 57.38 56.59 56.38 56.26 56.10
76.61 76.29 76.35 77.12 78.52 79.06 78.96 77.97 75.00 70.50 66.50 66.67 63.92 61.25 62.93 62.58 60.24 61.72 63.52 63.63 63.66 62.10 61.07 59.33 58.21 58.42 57.80 57.45 56.74 59.65 57.86 54.55 55.20 57.24 56.20 56.44 57.55 58.04 58.52 57.52 57.28 55.89 55.73
77.27 76.39 76.01 76.33 78.26 78.23 68.21 68.46 72.05 70.44 66.56 65.14 60.40 61.77 62.71 61.27 60.64 59.22 59.36 58.45 59.77 62.00 61.01 59.75 58.51 57.29 55.58 55.29 57.61 58.49 57.63 54.18 52.04 56.03 55.27 54.47 56.41 56.62 57.15 58.91 56.55 55.82 55.15
78.18 76.86 76.22 76.93 78.25 79.13 64.90 64.67 65.81 71.08 66.82 61.92 61.89 62.62 62.21 62.35 62.66 61.91 58.57 58.26 57.90 57.58 57.31 61.40 59.32 57.03 56.10 55.82 55.80 56.63 56.70 53.79 52.14 53.59 55.48 52.54 55.88 54.69 55.36 57.18 56.81 55.45 55.32
78.45 77.83 77.31 77.72 78.64 78.45 61.98 60.85 63.15 70.76 65.88 62.38 63.71 63.61 63.27 63.00 63.28 62.65 62.43 62.18 61.96 61.42 60.85 60.83 60.30 58.44 57.54 57.41 57.29 58.36 56.66 54.82 54.36 54.02 55.38 50.44 54.50 53.18 55.56 56.06 57.20 56.82 55.92
78.81 78.88 78.91 78.99 79.12 75.01 58.38 58.50 64.42 69.45 64.33 60.84 62.95 63.68 63.89 63.49 58.06 57.70 61.57 61.92 62.17 60.78 55.59 55.80 55.17 54.67 55.25 55.68 56.68 59.04 55.78 53.27 51.47 51.68 54.39 53.56 52.77 52.81 53.57 54.68 56.27 56.48 56.12
79.04 78.72 79.02 79.75 74.67 78.56 56.02 56.01 64.65 70.38 63.86 59.70 63.50 63.42 59.69 61.58 54.81 54.84 62.23 61.97 61.54 61.96 62.78 59.83 58.42 57.14 59.90 57.30 57.78 59.72 57.85 54.33 51.46 50.45 54.36 52.15 52.58 52.55 50.11 54.59 57.04 57.89 56.44
MSLP
1015.62 1015.38 1015.22 1014.93 1014.75 1014.50 1014.31 1014.18 1013.88 1013.78 1013.35 1012.79 1012.78 1012.61 1012.30 1011.95 1012.00 1011.98 1012.21 1013.76 1013.66 1013.53 1013.48 1013.44 1013.39 1013.43 1013.55 1013.61 1013.41 1013.96 1014.32 1014.38 1014.82 1015.05 1014.94 1015.30 1016.37 1016.61 1016.53 1016.51 1016.73 1016.90 1017.41
1015.64 1015.23 1015.38 1014.70 1014.30 1014.39 1014.67 1014.14 1014.04 1013.73 1013.26 1012.95 1013.01 1012.91 1012.75 1012.44 1012.74 1012.74 1012.30 1012.90 1013.69 1013.70 1013.58 1013.45 1013.46 1013.39 1013.57 1013.33 1012.82 1013.41 1014.15 1014.26 1014.08 1014.42 1015.15 1015.22 1015.91 1016.09 1016.41 1016.28 1016.34 1016.49 1016.87
1015.52 1015.67 1014.85 1014.44 1014.27 1014.49 1014.30 1013.97 1013.75 1013.24 1012.98 1012.65 1012.75 1012.61 1012.60 1012.93 1012.98 1013.08 1012.68 1012.61 1012.85 1013.50 1013.94 1013.84 1013.75 1013.88 1013.88 1013.60 1013.39 1013.92 1014.39 1014.16 1014.34 1014.49 1015.31 1015.36 1014.92 1015.25 1015.76 1015.85 1015.89 1015.98 1016.35
1015.29 1015.12 1014.89 1014.28 1014.86 1014.19 1014.04 1013.92 1013.56 1013.46 1012.86 1012.52 1012.60 1012.64 1012.82 1012.99 1012.95 1012.96 1012.91 1012.99 1012.86 1012.64 1013.88 1014.31 1014.19 1014.14 1014.12 1014.08 1014.09 1014.30 1014.29 1014.41 1014.32 1015.06 1014.92 1014.49 1014.29 1014.39 1014.85 1015.40 1015.48 1015.49 1015.82
1015.02 1015.12 1014.41 1014.32 1014.72 1013.90 1013.89 1013.77 1013.64 1013.45 1013.01 1012.76 1012.35 1012.60 1013.00 1013.00 1012.94 1012.75 1013.02 1013.24 1013.61 1013.25 1013.24 1014.32 1014.51 1014.65 1014.71 1014.73 1014.59 1014.42 1014.37 1014.30 1014.27 1013.77 1013.35 1013.23 1013.70 1014.09 1013.87 1014.32 1015.07 1015.47 1015.40
1014.80 1014.84 1014.25 1014.52 1014.53 1013.87 1013.70 1014.19 1014.20 1013.82 1013.04 1013.30 1012.52 1012.45 1013.05 1013.03 1013.08 1013.06 1012.86 1013.11 1013.76 1013.70 1013.80 1013.94 1013.55 1014.25 1014.63 1014.94 1015.12 1014.98 1014.48 1014.09 1013.46 1013.23 1013.33 1013.19 1013.58 1013.50 1013.57 1013.70 1013.99 1014.80 1015.07
1014.63 1014.74 1014.15 1014.14 1014.05 1013.86 1014.33 1014.13 1013.87 1013.38 1013.09 1013.05 1012.32 1011.73 1012.88 1013.31 1013.07 1013.04 1013.06 1013.36 1014.07 1014.27 1014.38 1014.31 1014.12 1014.01 1013.77 1014.44 1014.92 1014.98 1014.72 1014.21 1013.65 1013.44 1013.17 1012.97 1012.98 1012.94 1012.70 1013.04 1013.59 1013.89 1014.44
1014.59 1014.50 1014.57 1014.29 1014.16 1014.06 1013.97 1014.20 1014.13 1013.59 1013.14 1013.16 1013.09 1011.90 1011.59 1012.31 1012.97 1013.33 1013.54 1013.81 1014.44 1014.49 1014.51 1014.58 1014.78 1014.76 1014.32 1014.25 1014.79 1015.31 1015.15 1014.76 1014.34 1013.44 1013.28 1012.99 1012.56 1012.69 1012.49 1012.40 1012.30 1011.97 1012.68
1014.50 1014.48 1014.43 1014.38 1014.31 1014.14 1013.55 1014.09 1014.05 1013.93 1013.36 1013.00 1013.49 1013.02 1012.13 1011.72 1012.16 1013.47 1013.84 1014.19 1014.37 1014.15 1014.48 1014.68 1014.94 1014.99 1014.80 1014.47 1014.49 1014.97 1015.62 1015.36 1014.94 1014.43 1013.33 1012.68 1012.34 1012.52 1012.47 1012.34 1012.21 1010.83 1012.77
1014.39 1014.37 1014.42 1014.32 1014.30 1013.95 1014.08 1014.07 1014.05 1014.22 1014.22 1013.19 1012.88 1013.27 1013.82 1013.76 1012.93 1012.44 1013.36 1014.15 1014.46 1014.42 1014.94 1014.52 1014.45 1014.70 1014.88 1014.44 1014.84 1015.49 1015.53 1015.51 1015.19 1014.55 1013.82 1012.96 1012.63 1012.72 1012.68 1012.29 1012.58 1012.79 1013.64
1014.39 1014.29 1014.39 1014.34 1014.30 1013.85 1014.28 1014.37 1014.42 1014.50 1013.90 1013.85 1013.52 1013.40 1013.57 1013.56 1013.70 1013.41 1012.65 1012.66 1013.59 1013.98 1014.34 1014.37 1014.51 1014.42 1014.71 1014.78 1014.53 1015.64 1015.75 1015.70 1015.46 1015.04 1014.45 1013.63 1012.96 1012.50 1012.57 1012.70 1012.06 1012.95 1013.86
1014.22 1014.48 1014.38 1014.30 1014.30 1014.38 1014.41 1014.57 1014.79 1014.70 1014.67 1014.63 1014.21 1014.14 1013.78 1013.66 1013.52 1013.42 1013.01 1012.80 1013.18 1013.31 1014.11 1014.45 1014.46 1014.51 1014.62 1014.63 1015.49 1016.12 1015.96 1015.95 1015.98 1015.63 1015.11 1014.59 1013.73 1013.13 1012.57 1012.84 1012.98 1013.23 1013.97
1013.87 1014.41 1014.65 1014.39 1014.11 1014.44 1014.45 1014.88 1014.89 1014.96 1014.99 1014.82 1014.99 1014.33 1014.37 1014.43 1014.48 1014.08 1013.60 1013.04 1013.11 1013.07 1013.69 1014.23 1014.52 1014.66 1014.39 1014.86 1015.55 1015.96 1016.27 1016.28 1016.18 1016.10 1015.64 1015.15 1014.55 1013.80 1013.24 1013.34 1013.64 1013.84 1014.12
1013.97 1014.63 1014.52 1014.41 1014.46 1014.35 1014.30 1014.64 1014.81 1014.89 1015.36 1015.39 1015.62 1015.59 1014.93 1015.00 1014.99 1014.80 1014.47 1014.03 1013.07 1012.46 1012.84 1013.86 1014.25 1014.75 1014.84 1014.95 1016.00 1016.09 1016.31 1016.66 1016.63 1016.48 1016.28 1015.84 1015.45 1015.13 1014.75 1014.49 1014.31 1014.31 1014.90
1013.95 1014.25 1014.36 1014.38 1014.39 1014.39 1014.62 1014.96 1014.96 1015.61 1015.69 1015.86 1016.00 1015.83 1015.26 1015.25 1015.19 1015.05 1014.72 1014.52 1014.26 1013.23 1012.72 1013.69 1014.00 1015.10 1014.95 1015.10 1016.00 1015.80 1016.36 1017.26 1017.09 1017.01 1016.86 1016.65 1016.48 1016.36 1015.98 1015.60 1015.29 1015.55 1016.01
1014.24 1014.22 1014.33 1014.29 1014.33 1014.50 1014.74 1015.04 1015.29 1015.87 1015.93 1015.74 1015.75 1016.02 1015.89 1015.73 1015.44 1015.30 1015.11 1014.84 1014.55 1014.25 1013.40 1013.88 1014.25 1015.30 1015.38 1015.36 1016.15 1016.14 1016.79 1017.15 1017.59 1017.51 1017.51 1017.42 1017.16 1017.08 1017.08 1016.97 1016.73 1016.65 1016.93
1014.02 1014.12 1014.25 1014.27 1014.23 1014.42 1014.82 1015.12 1015.50 1015.98 1016.13 1016.07 1016.23 1016.35 1016.48 1016.47 1015.87 1015.58 1015.35 1015.18 1014.95 1014.98 1014.12 1013.94 1014.89 1015.46 1015.63 1015.70 1015.64 1016.17 1016.56 1016.80 1017.71 1018.04 1018.04 1018.12 1018.19 1018.01 1017.94 1017.88 1017.93 1017.89 1017.93
1013.75 1013.85 1013.97 1014.05 1014.06 1014.08 1014.50 1015.12 1015.41 1015.83 1016.31 1016.10 1016.40 1016.49 1016.53 1016.41 1016.47 1016.43 1015.71 1016.16 1015.89 1015.68 1015.19 1014.90 1015.43 1015.15 1016.10 1016.10 1016.01 1016.44 1016.54 1016.78 1017.69 1018.42 1018.55 1018.55 1018.55 1018.73 1018.62 1018.56 1018.69 1018.67 1018.56
1013.39 1013.41 1013.57 1013.72 1013.77 1013.90 1014.04 1014.89 1015.25 1016.04 1016.43 1016.27 1016.51 1016.60 1016.88 1017.05 1016.96 1016.94 1016.88 1016.28 1016.06 1016.07 1015.48 1015.05 1014.97 1015.44 1015.76 1016.24 1016.31 1016.83 1016.97 1017.74 1017.83 1018.89 1019.07 1019.10 1019.16 1019.16 1019.23 1019.23 1019.31 1019.47 1019.45
1012.93 1013.11 1013.13 1013.28 1013.46 1013.58 1013.81 1014.72 1015.19 1015.97 1016.41 1016.46 1016.67 1016.92 1017.19 1017.28 1017.43 1017.48 1017.33 1017.14 1016.99 1016.25 1015.91 1015.41 1015.36 1015.66 1015.96 1016.67 1016.82 1016.98 1017.84 1018.38 1018.64 1018.99 1019.38 1019.41 1019.47 1019.68 1019.72 1019.68 1019.75 1019.83 1019.95
1012.27 1012.65 1012.67 1012.78 1013.08 1013.21 1013.50 1014.51 1015.02 1016.07 1016.48 1016.41 1016.82 1017.21 1017.39 1018.00 1018.29 1018.17 1017.41 1017.82 1017.40 1016.88 1016.35 1016.12 1016.25 1016.75 1017.14 1017.34 1017.51 1017.35 1017.73 1018.80 1019.36 1019.32 1019.65 1019.86 1019.74 1019.56 1019.61 1019.85 1020.04 1020.24 1020.45
1011.68 1012.09 1012.33 1012.39 1012.55 1012.71 1013.00 1014.14 1014.93 1015.86 1016.38 1016.58 1016.93 1017.38 1018.06 1018.45 1018.80 1018.86 1018.85 1018.74 1018.77 1018.26 1017.92 1017.28 1017.28 1017.82 1018.41 1018.46 1018.19 1017.69 1018.10 1018.70 1019.39 1019.86 1019.89 1020.15 1020.11 1020.12 1020.27 1020.26 1020.60 1020.91 1021.08
1011.13 1011.63 1011.88 1012.02 1012.12 1012.43 1013.22 1014.06 1014.91 1015.41 1016.06 1016.73 1016.94 1017.35 1017.48 1018.24 1018.73 1019.02 1019.45 1019.31 1019.23 1019.28 1019.11 1018.48 1018.44 1018.81 1018.77 1019.12 1019.00 1018.52 1018.68 1019.18 1019.90 1020.26 1020.12 1020.43 1020.61 1020.71 1020.95 1020.99 1021.15 1021.39 1021.55
1010.57 1010.99 1011.33 1011.60 1011.73 1012.06 1013.31 1014.26 1015.02 1015.50 1016.19 1016.76 1016.66 1017.02 1017.25 1018.39 1018.60 1018.84 1018.87 1018.89 1019.14 1019.63 1019.83 1019.16 1019.29 1019.51 1019.55 1019.22 1018.75 1018.43 1018.83 1019.53 1020.15 1020.39 1020.37 1020.68 1021.01 1021.08 1021.25 1021.48 1021.60 1021.91 1022.11
1010.15 1010.33 1010.76 1011.13 1011.52 1012.67 1013.44 1014.48 1015.07 1015.56 1016.09 1016.77 1016.80 1017.17 1017.64 1018.22 1018.79 1019.08 1018.82 1018.81 1019.05 1019.34 1020.43 1020.36 1020.11 1020.16 1019.94 1019.63 1018.89 1017.99 1018.69 1019.31 1019.88 1020.56 1020.75 1020.76 1021.25 1021.30 1021.52 1021.80 1021.95 1022.22 1022.44
1009.63 1009.68 1010.12 1010.58 1011.10 1012.04 1013.77 1014.33 1014.65 1014.83 1015.77 1016.34 1017.03 1017.28 1017.73 1018.27 1019.11 1019.38 1018.84 1018.79 1018.64 1018.74 1018.89 1019.54 1019.81 1019.88 1019.18 1019.53 1019.12 1018.58 1018.36 1018.76 1019.73 1020.42 1020.84 1020.99 1021.28 1021.42 1021.67 1022.08 1022.10 1022.14 1022.87
Wind_Speed
4 4 4 4 4 5 5 5 5 5 6 8 8 8 8 7 7 5 7 10 8 5 5 7 7 5 7 8 12 5 7 15 12 19 18 8 6 8 16 21 20 21 20
4 5 5 6 5 5 7 5 6 6 6 7 7 8 7 6 8 7 5 9 12 12 8 7 6 5 7 9 5 10 6 13 19 24 22 10 5 18 17 12 22 21 21
3 4 5 5 7 5 5 5 6 5 5 4 5 4 4 6 6 6 7 6 11 17 16 15 16 16 17 15 13 12 11 6 10 10 14 17 19 24 28 22 16 22 22
4 4 4 5 6 4 4 5 6 7 6 6 4 4 4 5 4 6 8 8 7 6 14 17 18 18 18 18 14 10 4 3 10 15 14 15 19 23 24 27 23 19 22
3 4 4 5 6 5 4 6 8 8 7 7 5 3 4 4 6 7 7 9 7 7 7 14 18 17 19 18 15 11 6 2 5 10 12 14 15 19 24 21 22 14 22
1 3 4 5 6 5 7 8 7 6 6 5 7 3 4 4 5 5 6 7 7 8 8 7 4 11 16 17 17 15 13 11 10 4 9 11 16 13 14 21 23 21 19
2 3 5 5 5 6 6 7 7 9 7 6 8 3 7 2 5 5 5 6 6 7 6 6 6 6 6 14 16 18 17 15 14 12 10 7 7 11 15 17 19 26 19
5 4 5 7 6 7 4 6 8 8 6 6 6 7 2 6 3 5 4 3 5 3 5 6 7 8 8 8 11 18 17 17 16 16 12 7 3 4 5 11 6 25 36
4 3 5 7 7 6 6 5 8 8 7 4 4 6 6 6 3 2 2 2 2 1 3 4 5 6 7 7 8 12 16 17 17 15 16 14 3 4 6 10 9 16 27
3 4 5 6 5 6 6 7 6 6 5 5 4 3 4 7 9 3 4 5 4 4 1 2 3 5 7 6 14 14 15 16 17 17 16 16 11 6 6 7 19 20 26
2 4 5 5 5 6 6 7 7 6 3 6 5 6 3 3 0 6 7 2 6 2 1 2 4 5 6 6 8 12 14 16 16 17 17 17 15 9 7 3 16 21 20
1 4 6 4 4 6 7 5 5 5 6 5 5 5 5 6 6 6 7 4 4 1 2 2 3 4 4 5 12 11 14 16 16 16 16 15 15 13 7 10 9 18 20
2 6 5 4 4 5 5 4 3 5 4 5 5 5 5 5 6 6 6 6 5 1 2 2 3 4 5 5 9 8 14 14 15 17 16 16 17 18 12 10 12 18 22
3 2 4 5 4 4 3 4 3 5 5 4 5 5 4 4 4 5 6 7 7 3 4 2 3 3 3 5 7 1 11 12 13 14 15 16 17 18 18 15 12 17 21
5 5 2 5 5 4 4 1 4 5 3 2 3 3 3 4 4 4 4 5 6 7 6 6 3 5 4 7 5 6 9 11 12 14 14 15 16 17 18 18 14 12 15
5 4 4 5 5 5 1 2 3 4 2 2 2 3 4 5 3 4 4 4 4 6 5 4 3 4 4 6 5 6 8 13 13 13 14 14 15 16 16 17 16 14 12
8 7 6 5 5 3 1 1 2 5 2 3 2 4 5 4 5 4 4 4 5 6 6 4 2 5 1 1 2 5 5 6 9 13 12 13 13 13 13 14 15 14 13
10 9 8 7 6 6 2 4 5 5 4 4 3 3 4 4 3 3 3 5 6 5 7 3 5 2 4 2 0 2 4 5 8 12 12 11 11 11 11 12 12 12 12
12 11 9 8 8 7 4 5 6 6 5 5 4 3 4 4 5 6 7 6 5 5 4 5 4 4 2 3 1 3 3 6 6 10 10 11 11 9 9 10 10 9 10
12 12 11 9 8 8 6 8 7 8 5 5 5 4 5 4 6 5 5 5 5 4 4 5 5 5 6 6 4 5 5 5 4 5 6 7 6 7 8 8 9 9 8
12 12 12 10 9 8 7 9 9 9 8 7 6 6 6 10 12 12 4 7 7 8 7 6 6 7 7 5 4 3 5 5 3 2 4 3 2 5 5 5 9 9 8
12 11 12 11 11 9 18 13 11 10 10 7 8 8 10 12 12 13 13 15 12 9 9 9 8 7 6 6 4 3 6 4 2 3 2 4 4 5 5 4 11 10 8
11 12 12 12 11 9 14 15 11 11 11 7 10 10 9 9 9 9 8 8 8 6 5 9 9 7 5 6 4 5 6 5 3 2 1 4 2 4 4 4 10 10 8
11 11 12 12 11 7 16 15 12 12 11 7 9 11 7 10 8 6 4 4 6 10 10 9 10 9 8 6 3 2 7 7 5 4 2 3 2 3 4 3 7 10 8
11 12 11 12 12 10 16 17 14 12 11 9 8 9 10 9 9 2 4 3 3 6 7 7 7 8 8 9 11 5 4 5 3 3 3 2 1 2 2 3 4 8 8
11 10 11 11 12 11 14 18 13 9 12 9 6 9 5 8 10 6 5 3 3 3 1 7 7 8 6 7 8 10 5 5 5 3 2 2 1 0 2 3 5 7 6
Wind_Direction
11 358 357 343 338 1 10 353 3 1 338 357 354 349 352 4 3 357 91 80 31 346 298 280 297 274 263 269 251 253 75 79 10 19 306 224 274 280 256 234 218 206 203
10 347 355 342 9 13 339 354 355 350 329 359 3 17 19 29 34 12 19 108 81 50 33 31 30 15 14 8 241 149 180 182 176 202 217 206 236 266 253 243 233 217 204
341 313 5 351 16 352 335 3 333 349 352 349 13 48 50 53 44 36 27 25 122 80 53 52 59 60 55 57 67 103 136 163 187 210 217 220 217 242 242 242 228 226 209
310 317 358 334 360 335 0 348 358 349 357 2 10 17 47 60 39 40 47 28 22 78 81 63 62 67 61 63 78 77 73 195 220 217 218 210 219 237 239 236 222 228 214
295 298 327 351 347 339 353 343 359 5 352 1 342 58 53 42 38 45 46 58 39 41 90 98 78 64 63 58 57 47 46 197 234 251 248 241 236 248 243 229 211 233 222
321 310 340 350 318 328 4 1 353 358 318 1 328 72 37 41 32 43 35 59 55 54 65 33 57 93 67 53 41 34 23 14 17 338 244 237 229 230 232 223 215 219 233
7 323 329 334 315 328 357 347 349 354 343 357 299 9 123 91 28 30 33 40 56 68 54 54 33 11 63 81 47 26 18 12 9 18 4 301 195 238 238 216 215 216 228
317 283 335 333 355 324 343 353 358 341 323 22 334 307 287 152 82 8 44 51 69 76 74 58 47 33 16 31 56 44 26 17 9 13 9 8 147 241 237 236 252 259 198
314 333 328 334 330 289 9 352 2 352 344 331 24 338 327 359 344 154 114 19 337 78 35 93 51 38 29 48 29 34 27 23 17 11 17 15 119 226 219 192 199 139 135
344 348 359 1 357 341 4 7 14 338 332 357 344 65 352 354 336 325 162 119 246 241 8 332 43 67 18 19 83 49 31 22 19 16 12 21 22 214 188 168 167 156 152
1 65 13 358 15 349 20 352 2 355 336 348 357 348 7 301 270 321 327 107 181 198 274 283 11 15 34 24 45 54 33 24 18 22 17 14 23 45 160 143 158 149 152
178 49 1 0 21 353 20 359 359 33 25 19 357 342 358 348 347 325 327 316 339 84 277 300 348 4 18 6 76 68 40 35 27 24 24 15 23 41 78 154 155 149 144
245 73 350 345 6 18 356 13 15 58 40 17 360 354 13 7 344 337 319 329 308 348 263 229 353 347 353 356 67 45 56 42 42 31 27 33 25 34 49 124 160 157 150
238 33 341 313 348 358 355 350 47 44 38 45 44 21 14 22 9 3 345 331 321 299 183 273 127 352 354 31 64 90 83 51 44 50 41 37 38 35 46 53 119 134 135
239 201 288 292 314 333 354 338 77 80 88 45 88 49 358 29 19 1 353 343 338 329 337 113 324 98 329 73 53 70 82 69 56 53 54 52 47 44 42 53 61 102 118
237 250 251 263 298 312 341 317 125 118 94 87 54 39 354 22 4 8 352 349 342 321 311 38 79 23 338 80 96 85 88 96 71 61 52 54 56 52 51 55 69 84 88
224 227 234 253 278 289 281 161 133 144 166 124 94 62 60 24 12 18 5 358 2 344 317 67 15 88 326 25 123 104 110 112 98 79 66 56 59 59 58 61 61 70 83
226 224 229 239 260 273 198 192 186 157 173 153 124 105 73 62 24 356 38 12 25 29 334 345 42 84 94 310 325 95 88 48 102 92 82 67 55 62 67 71 61 54 49
234 229 222 237 248 246 214 183 189 159 190 144 143 125 92 73 52 39 21 11 26 25 2 16 27 44 52 31 235 99 77 87 89 104 90 83 68 56 75 81 77 62 50
228 233 229 235 238 231 194 175 173 163 176 147 139 115 103 96 81 64 50 44 25 348 32 22 29 39 25 49 10 85 89 64 59 53 58 75 59 78 102 96 94 85 63
220 230 232 227 228 224 181 181 174 164 166 150 139 134 111 71 53 30 46 39 10 6 12 38 40 43 29 11 19 30 93 115 104 66 86 79 8 85 113 130 110 99 85
216 221 227 222 221 231 135 152 168 161 165 151 152 124 121 119 88 71 68 55 34 15 37 14 39 38 24 3 18 347 74 145 108 56 85 65 59 65 51 53 95 119 110
209 215 222 218 221 217 149 151 166 159 163 162 160 152 167 120 142 123 111 113 82 58 12 30 36 30 21 6 323 320 71 80 68 35 138 86 69 74 73 74 122 117 116
206 210 217 217 218 203 151 153 170 156 157 176 169 162 149 159 149 160 140 93 65 52 24 47 47 44 38 358 311 319 106 109 111 59 4 86 45 67 91 81 124 142 136
205 213 217 213 213 145 147 155 177 162 158 167 177 167 156 170 139 232 182 141 108 112 124 117 122 130 95 38 5 97 130 142 109 46 22 88 66 97 81 130 133 125 133
212 215 216 211 207 163 163 167 191 171 165 166 172 161 165 167 158 197 219 188 210 134 25 151 172 170 96 89 57 42 60 109 139 122 56 97 132 90 84 82 140 144 135